Location: Sankt+Gallen
(47.4262°N, 9.3755°E)
Time: 08:44:10
(UTC+01:00)

ARIANE 6 FM1 Upper Stage - Pass Details

Date: 19 February 2026
Orbit: 523 x 606 km, 62.0° (Epoch: 14 March)

Event Time Altitude Azimuth Distance (km) Brightness Sun altitude
Rises 20:17:12 0° 298° (WNW) 2,659 7.3 -25.1°
Reaches altitude 10° 20:20:59 10° 261° (W) 1,770 6.1 -25.7°
Maximum altitude 20:22:00 11° 246° (WSW) 1,716 5.8 -25.9°
Drops below altitude 10° 20:23:02 10° 231° (SW) 1,772 5.7 -26.1°
Enters shadow 20:26:00 - 199° (SSW) 2,411 6.0 -26.6°
